INMARSAT 4-F3

Last updated on Sat Dec 13 2025 00:02:47 GMT+0000 (Coordinated Universal Time)

1 33278U 08039A 25346.25695234 -.00000132 00000+0 00000+0 0 9994 2 33278 4.1352 30.8132 0002949 235.7298 169.1725 1.00270017 44677
UTC large
Height (km)
Speed (km/s)
/
Latitude / Longitude
Inclination (degrees)
Orbital Period (minutes)
Azimuth
Elevation
Range (km)
Doppler Factor

Next 0 passes for location: London (51.5072 / 0.1276)

Sorry there are no passes over London.